Location: ???????
(55.4362°N, 38.1183°E)
Time: 21:44:33
(UTC+00:00)

SL-4 R/B - Pass Details

Date: 26 October 2021
Orbit: 427 x 661 km, 51.6° (Epoch: 27 November)

Event Time Altitude Azimuth Distance (km) Brightness Sun altitude
Exits shadow 01:02:28 10° 144° (SE) 1,860 4.9 -28.3°
Drops below altitude 10° 01:02:30 10° 144° (SE) 1,867 4.9 -28.3°
Sets 01:04:50 0° 134° (SE) 2,717 5.9 -27.9°
